No;Time;Interval(mi);Indoor Humidity(%);Indoor Temperature(�C);Outdoor Humidity(%);Outdoor Temperature(�C);Absolute Pressure(Hpa);Wind(m/s);Gust(m/s);Direction;Relative Pressure(Hpa);Dewpoint(�C);Windchill(�C);Total Rainfall(mm)
1;2017-01-01 00:02:00;10;46;19.4;75;5.4;1015.9;0.7;1.4;W;1019.1;1.3;4.5;2499.9;
2;2017-01-01 00:12:00;10;45;19.5;76;5.3;1015.8;0.7;1.4;WNW;1019.0;1.4;4.4;2499.9;
3;2017-01-01 00:22:00;10;45;19.5;76;5.3;1015.9;0.7;1.4;W;1019.1;1.4;4.4;2499.9;
4;2017-01-01 00:32:00;10;46;19.5;77;5.2;1016.0;1.0;1.4;NW;1019.2;1.5;4.3;2499.9;
5;2017-01-01 00:42:00;10;46;19.6;77;5.2;1016.0;0.7;1.4;NW;1019.2;1.5;4.3;2499.9;
6;2017-01-01 00:52:00;10;47;19.7;77;5.2;1015.8;0.0;0.3;E;1019.0;1.5;5.2;2499.9;
7;2017-01-01 01:02:00;10;47;19.8;78;5.1;1015.8;0.0;0.3;W;1019.0;1.6;5.1;2499.9;
8;2017-01-01 01:12:00;10;48;19.8;78;5.1;1015.8;0.7;1.4;N;1019.0;1.6;4.2;2499.9;
9;2017-01-01 01:22:00;10;49;19.9;78;5.1;1015.8;0.0;0.7;SW;1019.0;1.6;5.1;2499.9;
10;2017-01-01 01:32:00;10;48;20.0;78;5.1;1015.8;0.0;0.7;S;1019.0;1.6;5.1;2499.9;
11;2017-01-01 01:42:00;10;47;20.0;77;5.1;1015.7;0.3;0.7;NW;1018.9;1.4;5.1;2499.9;
12;2017-01-01 01:52:00;10;42;19.9;77;5.1;1015.6;0.7;1.0;SE;1018.8;1.4;5.1;2499.9;
13;2017-01-01 02:02:00;10;44;19.8;77;5.0;1015.5;0.0;0.3;NE;1018.7;1.3;5.0;2499.9;
14;2017-01-01 02:12:00;10;45;19.7;77;5.0;1015.6;0.3;0.7;SW;1018.8;1.3;5.0;2499.9;
15;2017-01-01 02:22:00;10;45;19.6;77;5.0;1015.5;0.0;0.3;S;1018.7;1.3;5.0;2499.9;
16;2017-01-01 02:32:00;10;45;19.6;77;5.0;1015.5;0.7;1.0;NW;1018.7;1.3;5.0;2499.9;
17;2017-01-01 02:42:00;10;45;19.5;77;5.0;1015.5;0.7;1.4;S;1018.7;1.3;4.1;2499.9;
18;2017-01-01 02:52:00;10;45;19.5;77;5.0;1015.3;0.0;0.3;SW;1018.5;1.3;5.0;2499.9;
19;2017-01-01 03:02:00;10;45;19.5;77;5.0;1015.1;0.3;0.7;SE;1018.3;1.3;5.0;2499.9;
20;2017-01-01 03:12:00;10;45;19.5;76;5.0;1015.0;1.0;1.4;SE;1018.2;1.1;4.1;2499.9;
21;2017-01-01 03:22:00;10;45;19.4;77;4.9;1014.9;0.0;0.7;SE;1018.1;1.2;4.9;2499.9;
22;2017-01-01 03:32:00;10;45;19.4;78;4.9;1014.9;0.7;1.4;WNW;1018.1;1.4;4.0;2499.9;
23;2017-01-01 03:42:00;10;45;19.4;78;4.9;1015.0;0.7;1.4;WNW;1018.2;1.4;4.0;2499.9;
24;2017-01-01 03:52:00;10;45;19.4;78;4.8;1015.1;0.7;1.0;S;1018.3;1.3;4.8;2499.9;
25;2017-01-01 04:02:00;10;45;19.3;78;4.8;1015.0;0.7;1.4;SE;1018.2;1.3;3.8;2499.9;
26;2017-01-01 04:12:00;10;45;19.3;78;4.8;1014.9;0.3;0.7;SE;1018.1;1.3;4.8;2499.9;
27;2017-01-01 04:22:00;10;44;19.3;78;4.8;1015.1;0.7;1.4;SE;1018.3;1.3;3.8;2499.9;
28;2017-01-01 04:32:00;10;43;19.3;78;4.8;1015.0;0.7;1.0;E;1018.2;1.3;4.8;2499.9;
29;2017-01-01 04:42:00;10;44;19.2;79;4.8;1015.1;0.3;0.7;S;1018.3;1.5;4.8;2499.9;
30;2017-01-01 04:52:00;10;44;19.1;79;4.9;1015.0;0.3;1.4;E;1018.2;1.6;4.0;2499.9;
31;2017-01-01 05:02:00;10;44;19.1;79;4.9;1015.3;0.7;1.4;S;1018.5;1.6;4.0;2499.9;
32;2017-01-01 05:12:00;10;44;19.0;79;4.9;1015.3;0.3;1.0;S;1018.5;1.6;4.9;2499.9;
33;2017-01-01 05:22:00;10;44;19.0;79;4.9;1015.1;0.3;0.7;S;1018.3;1.6;4.9;2499.9;
34;2017-01-01 05:32:00;10;44;19.0;79;4.9;1015.3;0.7;1.0;E;1018.5;1.6;4.9;2499.9;
35;2017-01-01 05:42:00;10;44;19.0;79;4.9;1015.3;0.3;0.7;SW;1018.5;1.6;4.9;2499.9;
36;2017-01-01 05:52:00;10;44;19.0;79;4.9;1015.3;0.0;0.3;SW;1018.5;1.6;4.9;2499.9;
37;2017-01-01 06:02:00;10;45;18.9;79;4.9;1015.3;0.3;0.7;NE;1018.5;1.6;4.9;2499.9;
38;2017-01-01 06:12:00;10;45;18.9;79;4.9;1015.2;0.7;1.0;S;1018.4;1.6;4.9;2499.9;
39;2017-01-01 06:22:00;10;45;18.9;78;5.0;1015.3;0.0;0.7;SW;1018.5;1.5;5.0;2499.9;
40;2017-01-01 06:32:00;10;45;18.9;78;5.0;1015.2;0.3;0.7;W;1018.4;1.5;5.0;2499.9;
41;2017-01-01 06:43:00;11;45;18.9;78;5.0;1015.2;0.3;0.7;E;1018.4;1.5;5.0;2499.9;
42;2017-01-01 06:53:00;10;45;18.9;78;4.9;1015.1;0.0;0.7;SW;1018.3;1.4;4.9;2499.9;
43;2017-01-01 07:03:00;10;45;18.9;78;4.8;1015.1;0.3;0.7;S;1018.3;1.3;4.8;2499.9;
44;2017-01-01 07:13:00;10;45;18.9;77;4.8;1015.1;0.3;1.0;NW;1018.3;1.1;4.8;2499.9;
45;2017-01-01 07:23:00;10;44;19.0;77;4.8;1015.1;0.3;0.7;S;1018.3;1.1;4.8;2499.9;
46;2017-01-01 07:33:00;10;44;19.0;77;4.8;1015.0;0.0;0.7;SE;1018.2;1.1;4.8;2499.9;
47;2017-01-01 07:43:00;10;44;19.0;77;4.8;1014.9;0.0;0.3;NW;1018.1;1.1;4.8;2499.9;
48;2017-01-01 07:53:00;10;44;19.0;77;4.6;1014.8;0.7;1.0;SE;1018.0;0.9;4.6;2499.9;
49;2017-01-01 08:03:00;10;44;19.0;77;4.4;1014.9;0.7;2.0;E;1018.1;0.7;2.7;2499.9;
50;2017-01-01 08:13:00;10;44;19.0;78;4.4;1014.9;1.4;2.4;W;1018.1;0.9;2.3;2499.9;
51;2017-01-01 08:23:00;10;44;19.0;78;4.4;1014.8;0.3;0.7;NW;1018.0;0.9;4.4;2499.9;
52;2017-01-01 08:33:00;10;44;19.0;78;4.4;1014.9;0.3;1.0;SE;1018.1;0.9;4.4;2499.9;
53;2017-01-01 08:43:00;10;45;18.9;78;4.4;1014.9;1.0;2.0;WNW;1018.1;0.9;2.7;2499.9;
54;2017-01-01 08:53:00;10;45;18.9;78;4.4;1014.9;0.7;1.4;E;1018.1;0.9;3.4;2499.9;
55;2017-01-01 09:03:00;10;45;18.9;77;4.3;1014.7;0.7;1.4;S;1017.9;0.6;3.3;2499.9;
56;2017-01-01 09:13:00;10;44;18.9;77;4.3;1014.8;0.3;1.0;S;1018.0;0.6;4.3;2499.9;
57;2017-01-01 09:23:00;10;44;18.9;77;4.3;1014.8;0.0;0.3;W;1018.0;0.6;4.3;2499.9;
58;2017-01-01 09:33:00;10;44;18.9;77;4.3;1014.9;0.0;0.7;NE;1018.1;0.6;4.3;2499.9;
59;2017-01-01 09:43:00;10;44;18.9;77;4.2;1014.9;0.7;1.0;N;1018.1;0.5;4.2;2499.9;
60;2017-01-01 09:53:00;10;44;18.9;77;4.2;1015.0;0.7;1.0;NW;1018.2;0.5;4.2;2499.9;
61;2017-01-01 10:03:00;10;44;18.9;78;4.2;1014.9;0.3;1.0;NW;1018.1;0.7;4.2;2499.9;
62;2017-01-01 10:13:00;10;44;18.9;78;4.2;1014.9;0.7;1.0;N;1018.1;0.7;4.2;2499.9;
63;2017-01-01 10:23:00;10;44;18.9;78;4.2;1015.1;0.3;1.0;S;1018.3;0.7;4.2;2499.9;
64;2017-01-01 10:33:00;10;43;19.0;78;4.3;1014.9;0.3;1.7;W;1018.1;0.8;2.9;2499.9;
65;2017-01-01 10:43:00;10;44;19.0;78;4.2;1015.2;0.0;0.3;S;1018.4;0.7;4.2;2499.9;
66;2017-01-01 10:53:00;10;43;19.0;77;4.3;1015.3;0.0;0.3;W;1018.5;0.6;4.3;2499.9;
67;2017-01-01 11:03:00;10;43;19.0;77;4.3;1015.4;0.0;0.0;SE;1018.6;0.6;4.3;2499.9;
68;2017-01-01 11:13:00;10;43;19.0;77;4.4;1015.5;0.7;1.4;SW;1018.7;0.7;3.4;2499.9;
69;2017-01-01 11:23:00;10;43;19.1;77;4.4;1015.4;0.3;1.0;S;1018.6;0.7;4.4;2499.9;
70;2017-01-01 11:33:00;10;43;19.1;77;4.3;1015.4;0.3;0.7;NW;1018.6;0.6;4.3;2499.9;
71;2017-01-01 11:43:00;10;43;19.1;77;4.3;1015.5;0.0;0.3;E;1018.7;0.6;4.3;2499.9;
72;2017-01-01 11:53:00;10;43;19.1;77;4.3;1015.6;0.7;1.0;S;1018.8;0.6;4.3;2499.9;
73;2017-01-01 12:03:00;10;43;19.2;77;4.3;1015.8;0.7;1.0;SW;1019.0;0.6;4.3;2499.9;
74;2017-01-01 12:13:00;10;42;19.2;76;4.3;1015.9;0.7;1.4;S;1019.1;0.4;3.3;2499.9;
75;2017-01-01 12:23:00;10;43;19.1;76;4.4;1015.9;0.7;1.0;NW;1019.1;0.5;4.4;2499.9;
76;2017-01-01 12:33:00;10;43;19.2;76;4.4;1015.9;0.7;1.7;NW;1019.1;0.5;3.0;2499.9;
77;2017-01-01 12:43:00;10;44;19.2;76;4.5;1015.8;0.3;1.0;S;1019.0;0.6;4.5;2499.9;
78;2017-01-01 12:53:00;10;44;19.2;75;4.6;1015.9;0.7;1.0;NW;1019.1;0.6;4.6;2499.9;
79;2017-01-01 13:03:00;10;44;19.2;75;4.8;1016.0;0.3;0.7;NW;1019.2;0.7;4.8;2499.9;
80;2017-01-01 13:13:00;10;44;19.2;74;5.1;1015.9;0.0;0.7;NW;1019.1;0.9;5.1;2499.9;
81;2017-01-01 13:23:00;10;38;19.3;74;5.5;1016.1;0.3;1.0;N;1019.3;1.2;5.5;2499.9;
82;2017-01-01 13:33:00;10;41;19.2;72;5.6;1016.0;0.3;1.0;SE;1019.2;1.0;5.6;2499.9;
83;2017-01-01 13:43:00;10;43;19.1;71;5.6;1016.0;0.0;0.7;SE;1019.2;0.8;5.6;2499.9;
84;2017-01-01 13:53:00;10;38;19.1;71;5.8;1016.0;1.0;1.7;SE;1019.2;1.0;4.6;2499.9;
85;2017-01-01 14:03:00;10;40;19.0;71;5.8;1015.9;0.3;0.7;N;1019.1;1.0;5.8;2499.9;
86;2017-01-01 14:13:00;10;40;19.0;70;5.9;1015.9;0.7;1.0;NW;1019.1;0.9;5.9;2499.9;
87;2017-01-01 14:23:00;10;42;19.0;69;6.0;1015.9;0.7;1.0;N;1019.1;0.7;6.0;2499.9;
88;2017-01-01 14:33:00;10;43;19.0;70;6.2;1015.7;0.3;0.7;N;1018.9;1.1;6.2;2499.9;
89;2017-01-01 14:43:00;10;44;19.0;70;6.6;1015.7;0.0;0.3;S;1018.9;1.5;6.6;2499.9;
90;2017-01-01 14:53:00;10;44;19.1;69;6.9;1015.7;0.0;0.3;NE;1018.9;1.6;6.9;2499.9;
91;2017-01-01 15:03:00;10;44;19.1;67;7.1;1015.6;0.3;1.4;NW;1018.8;1.4;6.5;2499.9;
92;2017-01-01 15:13:00;10;44;19.2;67;7.0;1015.4;0.3;1.0;SW;1018.6;1.3;7.0;2499.9;
93;2017-01-01 15:23:00;10;44;19.2;67;7.1;1015.4;0.3;0.7;N;1018.6;1.4;7.1;2499.9;
94;2017-01-01 15:33:00;10;44;19.3;67;7.3;1015.3;0.7;1.0;SE;1018.5;1.6;7.3;2499.9;
95;2017-01-01 15:43:00;10;45;19.4;67;7.5;1015.3;0.3;0.7;SW;1018.5;1.8;7.5;2499.9;
96;2017-01-01 15:53:00;10;42;19.4;68;7.7;1015.5;0.0;0.3;SW;1018.7;2.2;7.7;2499.9;
97;2017-01-01 16:03:00;10;44;19.4;67;7.9;1015.4;0.0;0.3;SW;1018.6;2.2;7.9;2499.9;
98;2017-01-01 16:13:00;10;46;19.4;67;8.0;1015.3;0.7;1.0;SW;1018.5;2.2;8.0;2499.9;
99;2017-01-01 16:23:00;10;47;19.4;66;8.2;1015.6;0.0;0.3;W;1018.8;2.2;8.2;2499.9;
100;2017-01-01 16:33:00;10;46;19.5;66;8.8;1015.5;0.3;1.0;S;1018.7;2.8;8.8;2499.9;
101;2017-01-01 16:43:00;10;46;19.5;65;8.7;1015.4;0.3;1.0;W;1018.6;2.5;8.7;2499.9;
102;2017-01-01 16:53:00;10;47;19.5;66;8.5;1015.4;0.3;1.0;SW;1018.6;2.5;8.5;2499.9;
103;2017-01-01 17:03:00;10;47;19.5;65;9.0;1015.4;0.0;0.0;SW;1018.6;2.8;9.0;2499.9;
104;2017-01-01 17:13:00;10;47;19.5;65;8.9;1015.4;0.3;1.0;W;1018.6;2.7;8.9;2499.9;
105;2017-01-01 17:23:00;10;47;19.6;66;8.4;1015.4;0.0;0.3;NE;1018.6;2.4;8.4;2499.9;
106;2017-01-01 17:33:00;10;47;19.5;67;8.2;1015.5;0.0;0.3;NE;1018.7;2.4;8.2;2499.9;
107;2017-01-01 17:43:00;10;47;19.6;67;8.0;1015.3;0.3;0.7;W;1018.5;2.2;8.0;2499.9;
108;2017-01-01 17:53:00;10;47;19.6;68;7.9;1015.6;0.0;0.7;S;1018.8;2.4;7.9;2499.9;
109;2017-01-01 18:03:00;10;47;19.6;68;7.5;1015.7;0.7;1.0;SE;1018.9;2.0;7.5;2499.9;
110;2017-01-01 18:13:00;10;46;19.7;69;7.3;1016.0;0.3;0.7;W;1019.2;2.0;7.3;2499.9;
111;2017-01-01 18:23:00;10;46;19.7;70;7.3;1016.2;0.3;1.0;NE;1019.4;2.2;7.3;2499.9;
112;2017-01-01 18:33:00;10;46;19.7;71;7.3;1016.1;0.0;0.3;N;1019.3;2.4;7.3;2499.9;
113;2017-01-01 18:43:00;10;46;19.7;71;7.3;1016.1;0.3;1.0;S;1019.3;2.4;7.3;2499.9;
114;2017-01-01 18:53:00;10;46;19.8;72;6.8;1016.3;0.0;0.3;SE;1019.5;2.1;6.8;2499.9;
115;2017-01-01 19:03:00;10;46;19.8;72;6.7;1016.2;0.3;0.7;W;1019.4;2.0;6.7;2499.9;
116;2017-01-01 19:13:00;10;46;19.8;72;6.4;1016.4;0.7;1.0;S;1019.6;1.7;6.4;2499.9;
117;2017-01-01 19:23:00;10;46;19.8;73;6.3;1016.5;0.3;0.7;NW;1019.7;1.8;6.3;2499.9;
118;2017-01-01 19:33:00;10;46;19.8;73;6.3;1016.5;0.7;1.0;SW;1019.7;1.8;6.3;2499.9;
119;2017-01-01 19:43:00;10;46;19.8;73;6.3;1016.5;1.0;1.7;SW;1019.7;1.8;5.2;2499.9;
120;2017-01-01 19:53:00;10;46;19.8;73;6.3;1016.6;0.0;0.7;NW;1019.8;1.8;6.3;2499.9;
121;2017-01-01 20:03:00;10;46;19.8;73;6.3;1016.7;0.3;0.7;SW;1019.9;1.8;6.3;2499.9;
122;2017-01-01 20:13:00;10;46;19.8;73;6.2;1016.8;0.0;0.3;SW;1020.0;1.7;6.2;2499.9;
123;2017-01-01 20:23:00;10;46;19.8;74;6.2;1016.8;0.3;1.0;SW;1020.0;1.9;6.2;2499.9;
124;2017-01-01 20:33:00;10;46;19.8;73;6.2;1017.1;0.7;1.4;W;1020.3;1.7;5.4;2499.9;
125;2017-01-01 20:43:00;10;46;19.8;73;6.2;1017.1;1.4;2.4;S;1020.3;1.7;4.4;2499.9;
126;2017-01-01 20:53:00;10;47;19.8;74;6.1;1017.2;1.0;1.4;S;1020.4;1.8;5.3;2499.9;
127;2017-01-01 21:03:00;10;45;19.8;74;6.1;1017.4;0.0;0.0;W;1020.6;1.8;6.1;2499.9;
128;2017-01-01 21:13:00;10;45;19.8;74;6.1;1017.5;0.0;0.3;SW;1020.7;1.8;6.1;2499.9;
129;2017-01-01 21:23:00;10;43;19.8;74;6.1;1017.5;0.0;0.3;NW;1020.7;1.8;6.1;2499.9;
130;2017-01-01 21:33:00;10;44;19.7;74;6.1;1017.6;0.3;0.7;SW;1020.8;1.8;6.1;2499.9;
131;2017-01-01 21:43:00;10;44;19.6;73;6.1;1017.6;0.0;0.3;SW;1020.8;1.6;6.1;2499.9;
132;2017-01-01 21:53:00;10;45;19.6;74;6.2;1017.8;0.0;0.7;W;1021.0;1.9;6.2;2499.9;
133;2017-01-01 22:03:00;10;42;19.6;74;6.2;1017.9;0.3;0.7;S;1021.1;1.9;6.2;2499.9;
134;2017-01-01 22:13:00;10;44;19.5;74;6.2;1017.8;0.3;1.7;SW;1021.0;1.9;5.1;2499.9;
135;2017-01-01 22:23:00;10;44;19.4;74;6.1;1017.9;1.0;2.0;S;1021.1;1.8;4.6;2499.9;
136;2017-01-01 22:33:00;10;45;19.4;74;5.9;1017.9;0.3;0.7;W;1021.1;1.6;5.9;2499.9;
137;2017-01-01 22:43:00;10;47;19.4;74;5.9;1018.0;0.0;0.3;S;1021.2;1.6;5.9;2499.9;
138;2017-01-01 22:53:00;10;48;19.5;74;5.8;1018.1;1.4;2.7;SW;1021.3;1.5;3.7;2499.9;
139;2017-01-01 23:03:00;10;44;19.5;72;5.7;1018.2;2.0;3.4;S;1021.4;1.0;3.1;2499.9;
140;2017-01-01 23:13:00;10;44;19.4;71;5.6;1018.0;1.0;2.4;S;1021.2;0.8;3.7;2499.9;
141;2017-01-01 23:23:00;10;46;19.4;71;5.5;1018.1;0.7;1.7;NE;1021.3;0.7;4.3;2499.9;
142;2017-01-01 23:33:00;10;50;19.4;72;5.4;1018.1;0.0;0.7;W;1021.3;0.8;5.4;2499.9;
143;2017-01-01 23:43:00;10;52;19.5;73;5.3;1018.1;0.3;1.0;SE;1021.3;0.9;5.3;2499.9;
144;2017-01-01 23:53:00;10;53;19.5;73;5.2;1018.0;0.3;0.7;NE;1021.2;0.8;5.2;2499.9;
145;2017-01-02 00:03:00;10;50;19.6;73;5.0;1018.3;0.3;0.7;NE;1021.5;0.6;5.0;2499.9;
146;2017-01-02 00:13:00;10;45;19.6;75;4.9;1018.4;0.3;1.0;SW;1021.6;0.8;4.9;2499.9;
147;2017-01-02 00:23:00;10;46;19.5;75;4.8;1018.6;0.3;0.7;SW;1021.8;0.7;4.8;2499.9;
148;2017-01-02 00:33:00;10;46;19.5;75;4.7;1018.6;0.3;1.4;S;1021.8;0.7;3.7;2499.9;
149;2017-01-02 00:43:00;10;46;19.5;76;4.5;1018.5;0.0;0.7;S;1021.7;0.6;4.5;2499.9;
150;2017-01-02 00:53:00;10;46;19.5;77;4.4;1018.5;1.0;1.7;N;1021.7;0.7;3.0;2499.9;
151;2017-01-02 01:03:00;10;45;19.6;78;4.4;1018.6;0.3;1.0;S;1021.8;0.9;4.4;2499.9;
152;2017-01-02 01:13:00;10;44;19.5;78;4.3;1018.5;0.3;1.4;S;1021.7;0.8;3.3;2499.9;
153;2017-01-02 01:23:00;10;45;19.5;80;4.3;1018.8;0.3;1.0;SW;1022.0;1.2;4.3;2499.9;
154;2017-01-02 01:33:00;10;45;19.4;81;4.3;1018.7;0.7;1.4;N;1021.9;1.3;3.3;2499.9;
155;2017-01-02 01:43:00;10;45;19.4;81;4.2;1019.0;1.0;1.7;S;1022.2;1.2;2.8;2499.9;
156;2017-01-02 01:53:00;10;45;19.4;81;4.1;1019.1;0.0;0.3;SW;1022.3;1.1;4.1;2499.9;
157;2017-01-02 02:03:00;10;45;19.4;82;4.0;1019.2;0.7;1.4;S;1022.4;1.2;2.9;2499.9;
158;2017-01-02 02:13:00;10;46;19.5;84;3.9;1019.1;0.3;1.0;NW;1022.3;1.4;3.9;2499.9;
159;2017-01-02 02:23:00;10;46;19.5;84;3.8;1019.2;0.3;0.7;SW;1022.4;1.3;3.8;2499.9;
160;2017-01-02 02:33:00;10;46;19.5;84;3.7;1019.2;0.7;1.0;SW;1022.4;1.3;3.7;2499.9;
161;2017-01-02 02:43:00;10;46;19.6;85;3.6;1019.4;0.3;0.7;SW;1022.6;1.3;3.6;2499.9;
162;2017-01-02 02:53:00;10;45;19.6;85;3.5;1019.3;0.0;0.3;W;1022.5;1.2;3.5;2499.9;
163;2017-01-02 03:03:00;10;45;19.6;85;3.3;1019.6;0.0;0.7;SW;1022.8;1.0;3.3;2499.9;
164;2017-01-02 03:13:00;10;45;19.6;85;3.2;1019.8;0.0;0.7;W;1023.0;0.9;3.2;2499.9;
165;2017-01-02 03:23:00;10;45;19.6;85;3.2;1019.7;0.7;1.0;SE;1022.9;0.9;3.2;2499.9;
166;2017-01-02 03:33:00;10;45;19.6;86;3.1;1019.6;0.3;0.7;S;1022.8;1.0;3.1;2499.9;
167;2017-01-02 03:43:00;10;45;19.6;86;3.1;1019.4;0.7;1.0;NE;1022.6;1.0;3.1;2499.9;
168;2017-01-02 03:53:00;10;45;19.6;86;3.0;1019.5;0.0;0.7;SW;1022.7;0.9;3.0;2499.9;
169;2017-01-02 04:03:00;10;45;19.5;86;3.1;1019.5;0.7;2.0;W;1022.7;1.0;1.1;2499.9;
170;2017-01-02 04:13:00;10;45;19.5;86;3.0;1019.4;0.3;0.7;S;1022.6;0.9;3.0;2499.9;
171;2017-01-02 04:23:00;10;45;19.5;87;3.0;1019.3;0.3;0.7;NW;1022.5;1.1;3.0;2499.9;
172;2017-01-02 04:33:00;10;45;19.5;87;3.0;1019.4;0.7;1.0;NW;1022.6;1.1;3.0;2499.9;
173;2017-01-02 04:43:00;10;44;19.4;83;2.9;1019.3;0.3;0.7;S;1022.5;0.3;2.9;2499.9;
174;2017-01-02 04:53:00;10;44;19.4;83;2.8;1019.3;0.7;1.0;NW;1022.5;0.2;2.8;2499.9;
175;2017-01-02 05:03:00;10;44;19.4;83;2.8;1019.6;0.7;1.7;SW;1022.8;0.2;1.2;2499.9;
176;2017-01-02 05:13:00;10;44;19.4;83;2.8;1019.3;1.4;1.7;SW;1022.5;0.2;1.2;2499.9;
177;2017-01-02 05:23:00;10;44;19.3;84;2.8;1019.2;0.0;0.3;W;1022.4;0.4;2.8;2499.9;
178;2017-01-02 05:33:00;10;44;19.3;83;2.7;1019.4;0.0;0.3;NW;1022.6;0.1;2.7;2499.9;
179;2017-01-02 05:43:00;10;44;19.3;84;2.8;1019.6;0.0;0.0;S;1022.8;0.4;2.8;2499.9;
180;2017-01-02 05:53:00;10;44;19.3;84;2.7;1019.5;0.3;1.0;SW;1022.7;0.3;2.7;2499.9;
181;2017-01-02 06:03:00;10;44;19.2;84;2.7;1019.5;0.7;1.4;W;1022.7;0.3;1.5;2499.9;
182;2017-01-02 06:13:00;10;44;19.2;84;2.7;1019.7;0.0;0.3;NW;1022.9;0.3;2.7;2499.9;
183;2017-01-02 06:23:00;10;44;19.2;84;2.7;1019.9;0.3;1.0;NE;1023.1;0.3;2.7;2499.9;
184;2017-01-02 06:33:00;10;44;19.1;84;2.7;1020.0;0.0;0.3;S;1023.2;0.3;2.7;2499.9;
185;2017-01-02 06:43:00;10;44;19.1;84;2.7;1020.2;0.3;1.0;SW;1023.4;0.3;2.7;2499.9;
186;2017-01-02 06:53:00;10;44;19.1;84;2.7;1020.2;0.3;1.0;S;1023.4;0.3;2.7;2499.9;
187;2017-01-02 07:03:00;10;44;19.0;84;2.8;1020.5;0.3;0.7;SW;1023.7;0.4;2.8;2499.9;
188;2017-01-02 07:13:00;10;44;19.0;84;2.7;1020.4;1.0;1.7;W;1023.6;0.3;1.0;2499.9;
189;2017-01-02 07:23:00;10;44;19.0;84;2.7;1020.6;0.0;0.7;ESE;1023.8;0.3;2.7;2499.9;
190;2017-01-02 07:33:00;10;45;18.9;84;2.7;1020.6;0.7;1.0;S;1023.8;0.3;2.7;2499.9;
191;2017-01-02 07:43:00;10;45;18.9;84;2.7;1020.7;0.7;1.0;S;1023.9;0.3;2.7;2499.9;
192;2017-01-02 07:53:00;10;45;18.9;84;2.7;1020.7;0.7;1.4;W;1023.9;0.3;1.5;2499.9;
193;2017-01-02 08:03:00;10;45;18.9;84;2.7;1020.8;0.0;0.7;SW;1024.0;0.3;2.7;2499.9;
194;2017-01-02 08:13:00;10;45;18.9;83;2.7;1020.5;1.0;2.0;S;1023.7;0.1;0.7;2499.9;
195;2017-01-02 08:23:00;10;45;18.9;83;2.7;1020.6;0.7;1.4;NW;1023.8;0.1;1.5;2499.9;
196;2017-01-02 08:33:00;10;45;18.9;83;2.7;1020.8;0.3;1.4;W;1024.0;0.1;1.5;2499.9;
197;2017-01-02 08:43:00;10;45;18.9;83;2.8;1021.0;0.3;1.0;S;1024.2;0.2;2.8;2499.9;
198;2017-01-02 08:53:00;10;44;19.0;83;2.8;1021.2;0.7;1.0;W;1024.4;0.2;2.8;2499.9;
199;2017-01-02 09:03:00;10;44;19.0;82;2.8;1021.2;0.3;0.7;N;1024.4;0.0;2.8;2499.9;
200;2017-01-02 09:13:00;10;44;18.9;82;2.7;1021.2;1.4;2.4;NW;1024.4;-0.1;0.3;2499.9;
201;2017-01-02 09:23:00;10;44;18.9;82;2.6;1021.3;0.3;1.0;SE;1024.5;-0.2;2.6;2499.9;
202;2017-01-02 09:33:00;10;44;18.9;82;2.6;1021.3;1.7;2.4;S;1024.5;-0.2;0.1;2499.9;
203;2017-01-02 09:43:00;10;44;18.9;82;2.6;1021.0;1.7;2.7;S;1024.2;-0.2;-0.1;2499.9;
204;2017-01-02 09:53:00;10;44;18.9;82;2.6;1021.1;1.0;1.7;NW;1024.3;-0.2;0.9;2499.9;
205;2017-01-02 10:03:00;10;44;18.9;82;2.5;1021.4;0.7;1.4;SW;1024.6;-0.3;1.2;2499.9;
206;2017-01-02 10:13:00;10;44;18.9;82;2.5;1021.3;3.4;4.1;S;1024.5;-0.3;-1.3;2499.9;
207;2017-01-02 10:23:00;10;43;19.0;82;2.5;1021.3;1.0;1.7;SE;1024.5;-0.3;0.8;2499.9;
208;2017-01-02 10:33:00;10;43;19.0;82;2.4;1021.5;1.7;3.1;S;1024.7;-0.4;-0.7;2499.9;
209;2017-01-02 10:43:00;10;43;19.0;83;2.5;1021.8;2.4;3.4;SE;1025.0;-0.1;-0.8;2499.9;
210;2017-01-02 10:53:00;10;43;19.0;83;2.4;1021.8;1.4;2.7;S;1025.0;-0.2;-0.4;2499.9;
211;2017-01-02 11:03:00;10;43;19.0;83;2.4;1021.7;1.7;2.7;S;1024.9;-0.2;-0.4;2499.9;
212;2017-01-02 11:13:00;10;43;19.0;83;2.4;1021.6;2.0;3.7;S;1024.8;-0.2;-1.2;2499.9;
213;2017-01-02 11:23:00;10;43;19.0;83;2.4;1021.6;1.0;1.7;N;1024.8;-0.2;0.7;2499.9;
214;2017-01-02 11:33:00;10;43;19.0;83;2.4;1021.5;1.4;2.7;S;1024.7;-0.2;-0.4;2499.9;
215;2017-01-02 11:43:00;10;43;19.1;83;2.5;1021.5;1.4;2.4;S;1024.7;-0.1;0.0;2499.9;
216;2017-01-02 11:53:00;10;43;19.1;83;2.7;1021.9;0.7;1.0;SW;1025.1;0.1;2.7;2499.9;
217;2017-01-02 12:03:00;10;43;19.1;83;2.8;1021.9;1.0;1.7;S;1025.1;0.2;1.2;2499.9;
218;2017-01-02 12:13:00;10;43;19.1;87;3.1;1022.0;0.3;0.7;SW;1025.2;1.1;3.1;2499.9;
219;2017-01-02 12:23:00;10;43;19.1;87;3.2;1022.0;2.0;3.4;NW;1025.2;1.2;0.0;2499.9;
220;2017-01-02 12:33:00;10;43;19.1;86;3.5;1022.3;1.7;2.7;SW;1025.5;1.4;0.9;2499.9;
221;2017-01-02 12:43:00;10;42;19.1;86;3.6;1022.4;1.4;2.7;SE;1025.6;1.5;1.1;2499.9;
222;2017-01-02 12:53:00;10;42;19.1;86;3.8;1022.1;1.0;2.0;NW;1025.3;1.7;2.0;2499.9;
223;2017-01-02 13:03:00;10;43;19.2;84;4.0;1022.5;0.7;1.4;SW;1025.7;1.5;2.9;2499.9;
224;2017-01-02 13:13:00;10;42;19.2;84;4.1;1022.7;3.1;4.1;SW;1025.9;1.6;0.7;2499.9;
225;2017-01-02 13:23:00;10;42;19.1;84;4.5;1022.5;0.7;1.7;N;1025.7;2.0;3.1;2499.9;
226;2017-01-02 13:33:00;10;43;19.1;83;4.8;1022.5;2.4;4.8;SW;1025.7;2.2;1.2;2499.9;
227;2017-01-02 13:43:00;10;43;19.1;80;4.9;1022.6;2.7;4.1;S;1025.8;1.7;1.7;2499.9;
228;2017-01-02 13:53:00;10;44;19.2;79;5.0;1022.7;1.7;2.7;N;1025.9;1.7;2.7;2499.9;
229;2017-01-02 14:03:00;10;41;19.2;78;5.1;1022.9;1.4;2.7;N;1026.1;1.6;2.8;2499.9;
230;2017-01-02 14:13:00;10;37;19.1;79;5.3;1022.5;2.7;4.4;WNW;1025.7;2.0;2.0;2499.9;
231;2017-01-02 14:23:00;10;41;18.9;78;5.5;1022.5;0.7;2.0;SW;1025.7;2.0;3.9;2499.9;
232;2017-01-02 14:33:00;10;42;18.9;77;5.6;1022.4;2.4;4.4;NW;1025.6;1.9;2.4;2499.9;
233;2017-01-02 14:43:00;10;43;18.9;77;5.6;1022.3;3.1;5.1;---;1025.5;1.9;2.0;2499.9;
234;2017-01-02 14:53:00;10;44;18.9;75;6.1;1022.3;1.4;2.7;SW;1025.5;2.0;4.0;2499.9;
235;2017-01-02 15:03:00;10;45;18.9;73;6.3;1022.4;2.0;3.4;SW;1025.6;1.8;3.8;2499.9;
236;2017-01-02 15:13:00;10;44;19.0;73;6.5;1022.4;0.3;1.0;S;1025.6;2.0;6.5;2499.9;
237;2017-01-02 15:23:00;10;43;19.0;72;6.6;1022.4;1.4;3.4;E;1025.6;1.9;4.2;2499.9;
238;2017-01-02 15:33:00;10;44;19.0;72;6.7;1022.3;1.4;2.4;SW;1025.5;2.0;5.0;2499.9;
239;2017-01-02 15:43:00;10;44;19.0;72;6.9;1022.1;1.4;2.4;S;1025.3;2.2;5.2;2499.9;
240;2017-01-02 15:53:00;10;44;19.0;70;7.1;1021.9;2.0;3.1;NNW;1025.1;2.0;4.9;2499.9;
241;2017-01-02 16:03:00;10;44;19.1;68;7.7;1021.8;2.0;3.1;S;1025.0;2.2;5.7;2499.9;
242;2017-01-02 16:13:00;10;45;19.1;67;7.8;1021.8;0.7;1.4;NW;1025.0;2.1;7.2;2499.9;
243;2017-01-02 16:23:00;10;45;19.1;67;7.8;1021.6;0.7;1.4;N;1024.8;2.1;7.2;2499.9;
244;2017-01-02 16:33:00;10;45;19.2;67;7.7;1021.4;2.7;3.7;S;1024.6;2.0;5.3;2499.9;
245;2017-01-02 16:43:00;10;45;19.3;67;7.9;1021.3;1.0;2.0;N;1024.5;2.2;6.7;2499.9;
246;2017-01-02 16:53:00;10;44;19.3;67;8.0;1021.4;0.7;2.4;NW;1024.6;2.2;6.5;2499.9;
247;2017-01-02 17:03:00;10;44;19.3;66;8.1;1021.1;1.0;1.7;SE;1024.3;2.1;7.3;2499.9;
248;2017-01-02 17:13:00;10;44;19.4;66;8.1;1021.3;1.0;1.7;S;1024.5;2.1;7.3;2499.9;
249;2017-01-02 17:23:00;10;45;19.4;66;8.0;1021.2;0.7;1.4;NE;1024.4;2.0;7.5;2499.9;
250;2017-01-02 17:33:00;10;46;19.4;67;7.9;1021.2;0.7;0.7;N;1024.4;2.2;7.9;2499.9;
251;2017-01-02 17:43:00;10;46;19.5;67;7.8;1021.4;1.4;2.0;W;1024.6;2.1;6.6;2499.9;
252;2017-01-02 17:53:00;10;44;19.5;68;7.7;1021.2;1.0;2.0;S;1024.4;2.2;6.5;2499.9;
253;2017-01-02 18:03:00;10;44;19.4;68;7.7;1021.3;0.7;1.4;NW;1024.5;2.2;7.1;2499.9;
254;2017-01-02 18:13:00;10;45;19.4;69;7.7;1021.2;1.4;2.7;S;1024.4;2.4;5.9;2499.9;
255;2017-01-02 18:23:00;10;45;19.4;69;7.7;1021.2;0.7;2.0;S;1024.4;2.4;6.5;2499.9;
256;2017-01-02 18:33:00;10;45;19.4;69;7.8;1021.5;0.3;1.0;SW;1024.7;2.5;7.8;2499.9;
257;2017-01-02 18:43:00;10;45;19.4;69;7.8;1021.5;0.7;1.0;W;1024.7;2.5;7.8;2499.9;
258;2017-01-02 18:53:00;10;45;19.5;69;7.7;1021.7;2.0;3.1;SE;1024.9;2.4;5.7;2499.9;
259;2017-01-02 19:03:00;10;44;19.5;70;7.7;1021.7;0.7;1.0;S;1024.9;2.6;7.7;2499.9;
260;2017-01-02 19:13:00;10;44;19.5;70;7.7;1021.8;1.4;2.0;SSW;1025.0;2.6;6.5;2499.9;
261;2017-01-02 19:23:00;10;44;19.5;71;7.7;1021.6;0.7;1.7;W;1024.8;2.8;6.8;2499.9;
262;2017-01-02 19:33:00;10;44;19.5;71;7.7;1021.7;0.0;0.7;NE;1024.9;2.8;7.7;2499.9;
263;2017-01-02 19:43:00;10;44;19.5;71;7.7;1021.6;0.3;0.7;S;1024.8;2.8;7.7;2499.9;
264;2017-01-02 19:53:00;10;44;19.5;71;7.6;1021.6;0.7;1.4;E;1024.8;2.7;7.0;2499.9;
265;2017-01-02 20:03:00;10;44;19.5;71;7.6;1021.8;0.7;1.0;NW;1025.0;2.7;7.6;2499.9;
266;2017-01-02 20:13:00;10;44;19.5;72;7.6;1021.9;0.7;1.0;NE;1025.1;2.9;7.6;2499.9;
267;2017-01-02 20:23:00;10;44;19.5;72;7.7;1021.9;0.7;1.0;N;1025.1;3.0;7.7;2499.9;
268;2017-01-02 20:33:00;10;44;19.5;72;7.6;1021.7;2.0;2.7;S;1024.9;2.9;5.8;2499.9;
269;2017-01-02 20:43:00;10;44;19.5;72;7.6;1021.6;0.7;1.4;ESE;1024.8;2.9;7.0;2499.9;
270;2017-01-02 20:53:00;10;44;19.6;73;7.6;1021.6;0.7;1.4;N;1024.8;3.1;7.0;2499.9;
271;2017-01-02 21:03:00;10;44;19.6;73;7.6;1021.6;0.7;1.7;N;1024.8;3.1;6.7;2499.9;
272;2017-01-02 21:13:00;10;44;19.6;73;7.6;1021.6;1.4;2.0;SW;1024.8;3.1;6.4;2499.9;
273;2017-01-02 21:23:00;10;44;19.6;73;7.6;1021.6;0.7;1.4;S;1024.8;3.1;7.0;2499.9;
274;2017-01-02 21:33:00;10;44;19.6;73;7.6;1021.6;1.4;2.0;SW;1024.8;3.1;6.4;2499.9;
275;2017-01-02 21:43:00;10;44;19.6;73;7.7;1021.6;0.3;0.7;SW;1024.8;3.2;7.7;2499.9;
276;2017-01-02 21:53:00;10;44;19.6;74;7.6;1021.7;0.3;0.7;NW;1024.9;3.3;7.6;2499.9;
277;2017-01-02 22:03:00;10;44;19.6;74;7.6;1021.6;1.0;1.7;S;1024.8;3.3;6.7;2499.9;
278;2017-01-02 22:13:00;10;44;19.6;74;7.6;1021.7;1.0;1.7;NE;1024.9;3.3;6.7;2499.9;
279;2017-01-02 22:23:00;10;44;19.6;75;7.5;1021.6;0.7;1.0;SSW;1024.8;3.4;7.5;2499.9;
280;2017-01-02 22:33:00;10;44;19.6;76;7.5;1021.8;0.3;0.7;S;1025.0;3.5;7.5;2499.9;
281;2017-01-02 22:43:00;10;44;19.6;76;7.5;1021.8;1.4;2.4;SW;1025.0;3.5;5.9;2499.9;
282;2017-01-02 22:53:00;10;44;19.5;78;7.3;1021.7;1.0;1.7;S;1024.9;3.7;6.3;2499.9;
283;2017-01-02 23:03:00;10;45;19.5;80;7.2;1021.6;0.3;1.4;SW;1024.8;4.0;6.6;2499.9;
284;2017-01-02 23:13:00;10;45;19.5;81;7.1;1021.8;0.7;1.7;SW;1025.0;4.1;6.1;2499.9;
285;2017-01-02 23:23:00;10;45;19.5;82;7.1;1021.7;1.0;1.7;SW;1024.9;4.2;6.1;2500.2;
286;2017-01-02 23:33:00;10;46;19.4;83;7.0;1021.6;1.4;2.4;S;1024.8;4.3;5.3;2500.2;
287;2017-01-02 23:43:00;10;46;19.4;84;6.9;1021.7;0.7;1.0;SW;1024.9;4.4;6.9;2500.2;
288;2017-01-02 23:53:00;10;46;19.5;85;6.9;1021.8;0.7;1.4;SW;1025.0;4.6;6.2;2500.2;